DW7624 Weather Reports


Display with metric or nautical units.
time (UTC)temp
F
wind
direction
speed
MPH
gust
MPH
rain 1hr
in
rain 24hr
in
rain mn
in
humidity
%
barometer
mb
20190921171958 89 69 3.0 5.0 0.00 0.00 0.00 52 1019.7
20190921171458 89 89 2.0 3.0 0.00 0.00 0.00 54 1019.8
20190921170958 88 63 4.0 5.0 0.00 0.00 0.00 54 1019.7
20190921170458 88 91 4.0 5.0 0.00 0.00 0.00 53 1019.8
20190921165958 88 283 2.0 6.0 0.00 0.00 0.00 54 1019.9
20190921165458 88 146 1.0 4.0 0.00 0.00 0.00 54 1019.8
20190921165001 88 72 4.0 4.0 0.00 0.00 0.00 54 1019.8
20190921164458 88 98 3.0 5.0 0.00 0.00 0.00 55 1020.1
20190921164001 88 127 3.0 4.0 0.00 0.00 0.00 55 1020.2
20190921163458 87 54 4.0 4.0 0.00 0.00 0.00 57 1020.2
20190921163001 87 98 3.0 4.0 0.00 0.00 0.00 58 1020.5
20190921162455 87 72 2.0 5.0 0.00 0.00 0.00 58 1020.3
20190921161958 86 68 3.0 4.0 0.00 0.00 0.00 56 1020.4
20190921161455 86 115 3.0 4.0 0.00 0.00 0.00 57 1020.5
20190921160956 86 53 2.0 4.0 0.00 0.00 0.00 57 1020.5
20190921160501 86 82 1.0 7.0 0.00 0.00 0.00 59 1020.6
20190921160001 86 39 0.0 5.0 0.00 0.00 0.00 60 1020.5
20190921155501 86 97 2.0 5.0 0.00 0.00 0.00 59 1020.6
20190921155002 85 85 2.0 3.0 0.00 0.00 0.00 61 1020.6
20190921154455 85 52 1.0 4.0 0.00 0.00 0.00 62 1020.6
20190921153958 85 250 1.0 3.0 0.00 0.00 0.00 63 1020.6
20190921153502 85 58 2.0 6.0 0.00 0.00 0.00 63 1020.8
20190921152957 85 93 2.0 2.0 0.00 0.00 0.00 63 1020.8
20190921152501 84 53 2.0 4.0 0.00 0.00 0.00 63 1020.9
20190921151958 84 108 3.0 6.0 0.00 0.00 0.00 63 1020.9
20190921151458 84 319 3.0 3.0 0.00 0.00 0.00 64 1020.9
20190921150955 84 93 4.0 4.0 0.00 0.00 0.00 64 1020.9
20190921150459 84 94 0.0 4.0 0.00 0.00 0.00 64 1020.9
20190921145958 83 63 1.0 8.0 0.00 0.00 0.00 64 1021.0
20190921145501 83 29 4.0 5.0 0.00 0.00 0.00 64 1020.9
20190921144958 83 61 3.0 10.0 0.00 0.00 0.00 64 1020.9
20190921144455 83 126 1.0 4.0 0.00 0.00 0.00 64 1020.9
20190921143958 82 1 2.0 3.0 0.00 0.00 0.00 65 1020.9
20190921143501 82 23 0.0 4.0 0.00 0.00 0.00 64 1021.1
20190921142958 82 75 2.0 4.0 0.00 0.00 0.00 63 1021.1
20190921142455 82 105 2.0 5.0 0.00 0.00 0.00 63 1021.0
20190921141959 82 85 2.0 4.0 0.00 0.00 0.00 64 1021.1
20190921141501 82 38 1.0 3.0 0.00 0.00 0.00 63 1021.2
20190921141002 82 94 0.0 2.0 0.00 0.00 0.00 64 1021.1
20190921140501 81 32 2.0 3.0 0.00 0.00 0.00 64 1021.1
20190921135958 81 83 0.0 2.0 0.00 0.00 0.00 65 1021.1
20190921135458 81 52 2.0 2.0 0.00 0.00 0.00 66 1021.1
20190921134958 80 75 2.0 4.0 0.00 0.00 0.00 69 1021.1
20190921134459 80 30 0.0 2.0 0.00 0.00 0.00 70 1021.0
20190921133959 79 21 1.0 2.0 0.00 0.00 0.00 70 1021.1
20190921133457 79 111 3.0 5.0 0.00 0.00 0.00 69 1021.0
20190921132958 79 37 2.0 3.0 0.00 0.00 0.00 71 1021.0
20190921132455 78 69 2.0 5.0 0.00 0.00 0.00 72 1020.9
20190921131958 78 320 0.0 2.0 0.00 0.00 0.00 72 1021.0
20190921131458 78 100 2.0 2.0 0.00 0.00 0.00 74 1021.0
20190921130958 77 53 3.0 6.0 0.00 0.00 0.00 74 1021.1
20190921130459 77 4 1.0 3.0 0.00 0.00 0.00 75 1021.1
20190921125958 77 34 0.0 1.0 0.00 0.00 0.00 76 1021.0
20190921125501 76 7 0.0 2.0 0.00 0.00 0.00 76 1021.0
20190921125001 76 13 1.0 1.0 0.00 0.00 0.00 76 1021.0
20190921124458 76 8 0.0 0.0 0.00 0.00 0.00 77 1020.9
20190921124001 76 321 0.0 1.0 0.00 0.00 0.00 78 1020.9
20190921123502 75 7 0.0 1.0 0.00 0.00 0.00 78 1020.9
20190921122958 74 51 0.0 1.0 0.00 0.00 0.00 79 1020.8
20190921122458 74 344 0.0 0.0 0.00 0.00 0.00 80 1020.8
20190921122001 74 27 0.0 1.0 0.00 0.00 0.00 81 1020.7
20190921121501 74 5 0.0 0.0 0.00 0.00 0.00 81 1020.6
20190921120955 73 2 0.0 0.0 0.00 0.00 0.00 80 1020.5
20190921120458 73 1 0.0 0.0 0.00 0.00 0.00 81 1020.6
20190921115955 73 44 0.0 1.0 0.00 0.00 0.00 81 1020.6
20190921115458 73 300 1.0 1.0 0.00 0.00 0.00 81 1020.6
20190921114958 73 30 0.0 0.0 0.00 0.00 0.00 81 1020.6
20190921114501 73 34 0.0 0.0 0.00 0.00 0.00 81 1020.5
20190921113958 73 354 0.0 0.0 0.00 0.00 0.00 81 1020.4
20190921113458 73 356 0.0 0.0 0.00 0.00 0.00 80 1020.4
20190921112958 73 356 0.0 0.0 0.00 0.00 0.00 80 1020.4
20190921112501 73 11 0.0 0.0 0.00 0.00 0.00 80 1020.4
20190921111958 73 11 0.0 0.0 0.00 0.00 0.00 80 1020.3
20190921111501 73 11 0.0 1.0 0.00 0.00 0.00 80 1020.2
20190921110958 73 34 0.0 1.0 0.00 0.00 0.00 80 1020.2
20190921110501 73 33 0.0 0.0 0.00 0.00 0.00 80 1020.2
20190921105958 73 14 0.0 1.0 0.00 0.00 0.00 80 1020.1
20190921105501 73 85 0.0 1.0 0.00 0.00 0.00 81 1020.1
20190921104959 73 44 1.0 1.0 0.00 0.00 0.00 81 1020.0
20190921104456 73 54 0.0 0.0 0.00 0.00 0.00 82 1019.9
20190921104001 73 21 0.0 1.0 0.00 0.00 0.00 82 1019.9
20190921103458 73 39 0.0 1.0 0.00 0.00 0.00 82 1019.9
20190921103001 74 359 0.0 0.0 0.00 0.00 0.00 82 1019.9
20190921102459 74 59 0.0 1.0 0.00 0.00 0.00 82 1019.9
20190921101958 74 47 0.0 1.0 0.00 0.00 0.00 82 1019.9
20190921101455 74 51 0.0 0.0 0.00 0.00 0.00 82 1019.8
20190921100959 73 68 0.0 1.0 0.00 0.00 0.00 83 1019.7
20190921100459 74 334 0.0 0.0 0.00 0.00 0.00 83 1019.6
20190921095958 74 331 0.0 0.0 0.00 0.00 0.00 83 1019.6
20190921095458 74 316 0.0 2.0 0.00 0.00 0.00 83 1019.5
20190921094959 74 358 0.0 1.0 0.00 0.00 0.00 83 1019.3
20190921094458 74 201 0.0 0.0 0.00 0.00 0.00 83 1019.3
20190921093959 74 69 0.0 1.0 0.00 0.00 0.00 83 1019.3
20190921093501 74 75 0.0 0.0 0.00 0.00 0.00 83 1019.3
20190921092958 74 76 0.0 0.0 0.00 0.00 0.00 83 1019.3
20190921092458 74 70 0.0 1.0 0.00 0.00 0.00 83 1019.3
20190921091955 74 74 0.0 1.0 0.00 0.00 0.00 83 1019.3
20190921091501 74 77 0.0 2.0 0.00 0.00 0.00 83 1019.3
20190921090955 74 110 2.0 2.0 0.00 0.00 0.00 84 1019.1
20190921090502 74 49 0.0 1.0 0.00 0.00 0.00 84 1019.1
20190921090001 74 357 0.0 2.0 0.00 0.00 0.00 84 1019.1
20190921085458 74 4 0.0 0.0 0.00 0.00 0.00 84 1019.0
20190921084955 74 329 0.0 0.0 0.00 0.00 0.00 84 1019.0
20190921084502 74 39 2.0 2.0 0.00 0.00 0.00 84 1019.0
20190921084001 74 105 0.0 0.0 0.00 0.00 0.00 83 1019.0
20190921083501 74 74 0.0 1.0 0.00 0.00 0.00 83 1019.1
20190921082955 74 77 0.0 0.0 0.00 0.00 0.00 83 1019.0
20190921082458 74 38 0.0 1.0 0.00 0.00 0.00 83 1019.0
20190921082003 74 89 0.0 1.0 0.00 0.00 0.00 83 1019.0
20190921081458 74 56 0.0 2.0 0.00 0.00 0.00 83 1019.0
20190921081001 75 58 0.0 2.0 0.00 0.00 0.00 82 1019.0
20190921080458 75 96 0.0 1.0 0.00 0.00 0.00 82 1019.0
20190921075958 75 82 1.0 2.0 0.00 0.00 0.00 82 1019.0
20190921075501 75 72 0.0 2.0 0.00 0.00 0.00 82 1019.0
20190921075001 75 79 0.0 2.0 0.00 0.00 0.00 82 1019.1
20190921074455 75 32 1.0 1.0 0.00 0.00 0.00 82 1019.0
20190921073958 75 63 0.0 3.0 0.00 0.00 0.00 82 1019.0
20190921073501 75 60 0.0 1.0 0.00 0.00 0.00 82 1019.1
20190921073001 75 73 2.0 2.0 0.00 0.00 0.00 82 1019.1
20190921072459 75 60 0.0 1.0 0.00 0.00 0.00 82 1019.1
20190921071958 75 81 0.0 2.0 0.00 0.00 0.00 82 1019.1
20190921071455 75 98 0.0 3.0 0.00 0.00 0.00 82 1019.1
20190921071001 75 105 0.0 1.0 0.00 0.00 0.00 81 1019.1
20190921070458 75 89 1.0 1.0 0.00 0.00 0.00 81 1019.2
20190921065955 75 94 1.0 2.0 0.00 0.00 0.00 81 1019.2
20190921065458 75 56 0.0 1.0 0.00 0.00 0.00 80 1019.3
20190921065001 75 88 1.0 1.0 0.00 0.00 0.00 80 1019.3
20190921064502 75 105 0.0 0.0 0.00 0.00 0.00 80 1019.4
20190921063958 75 349 0.0 1.0 0.00 0.00 0.00 80 1019.4
20190921063459 75 70 0.0 1.0 0.00 0.00 0.00 80 1019.3
20190921062958 75 121 2.0 2.0 0.00 0.00 0.00 80 1019.3
20190921062501 75 106 0.0 4.0 0.00 0.00 0.00 79 1019.3
20190921061958 75 60 2.0 2.0 0.00 0.00 0.00 79 1019.3
20190921061502 75 92 0.0 2.0 0.00 0.00 0.00 79 1019.4
20190921060958 76 94 1.0 2.0 0.00 0.00 0.00 79 1019.4
20190921060501 76 76 1.0 2.0 0.00 0.00 0.00 78 1019.4
20190921060002 76 68 2.0 2.0 0.00 0.00 0.00 78 1019.5
20190921055458 76 40 0.0 2.0 0.00 0.00 0.00 78 1019.5
20190921054958 76 53 0.0 0.0 0.00 0.00 0.00 78 1019.5
20190921054501 76 162 0.0 2.0 0.00 0.00 0.00 78 1019.7
20190921053958 76 83 2.0 2.0 0.00 0.00 0.00 78 1019.6
20190921053459 76 77 1.0 1.0 0.00 0.00 0.00 78 1019.7
20190921052958 76 94 0.0 0.0 0.00 0.00 0.00 77 1019.7
20190921052455 76 79 0.0 2.0 0.00 0.00 0.00 77 1019.8
20190921051958 76 296 0.0 1.0 0.00 0.00 0.00 76 1019.7
20190921051455 76 315 1.0 2.0 0.00 0.00 0.00 76 1019.8
20190921050958 76 76 0.0 1.0 0.00 0.00 0.00 76 1019.8
20190921050458 76 334 0.0 1.0 0.00 0.00 0.00 76 1019.8
20190921045955 76 86 1.0 1.0 0.00 0.00 0.00 76 1019.8
20190921045458 76 73 0.0 1.0 0.00 0.00 0.00 75 1019.8
20190921044955 76 305 1.0 1.0 0.00 0.00 0.00 75 1019.8
20190921044458 76 93 0.0 2.0 0.00 0.00 0.00 75 1019.9
20190921044002 76 54 0.0 0.0 0.00 0.00 0.00 75 1019.9
20190921043501 76 77 1.0 1.0 0.00 0.00 0.00 75 1020.0
20190921042955 76 52 0.0 2.0 0.00 0.00 0.00 74 1019.9
20190921042455 76 23 1.0 1.0 0.00 0.00 0.00 74 1020.0
20190921041958 77 354 0.0 1.0 0.00 0.00 0.00 74 1020.1
20190921041458 77 54 0.0 4.0 0.00 0.00 0.00 73 1020.1
20190921041001 77 30 0.0 3.0 0.00 0.00 0.00 73 1020.2
20190921040458 77 110 0.0 1.0 0.00 0.00 0.00 72 1020.3
20190921035955 77 1 0.0 1.0 0.00 0.00 0.00 72 1020.2
20190921035455 77 119 0.0 1.0 0.00 0.00 0.00 72 1020.2
20190921035002 77 58 0.0 1.0 0.00 0.00 0.00 72 1020.2
20190921034501 77 76 0.0 0.0 0.00 0.00 0.00 71 1020.3
20190921034002 77 51 1.0 2.0 0.00 0.00 0.00 71 1020.3
20190921033455 78 10 2.0 2.0 0.00 0.00 0.00 71 1020.3
20190921033001 78 90 0.0 1.0 0.00 0.00 0.00 70 1020.3
20190921032455 78 47 2.0 2.0 0.00 0.00 0.00 70 1020.3
20190921032001 78 84 1.0 1.0 0.00 0.00 0.00 70 1020.2
20190921031455 78 56 1.0 3.0 0.00 0.00 0.00 69 1020.3
20190921030958 78 58 0.0 4.0 0.00 0.00 0.00 69 1020.3
20190921030456 78 117 1.0 2.0 0.00 0.00 0.00 69 1020.3
20190921025955 78 78 1.0 2.0 0.00 0.00 0.00 68 1020.2
20190921025458 78 345 1.0 4.0 0.00 0.00 0.00 68 1020.2
20190921024955 78 34 2.0 3.0 0.00 0.00 0.00 68 1020.2
20190921024502 78 38 1.0 2.0 0.00 0.00 0.00 68 1020.1
20190921024001 78 95 1.0 1.0 0.00 0.00 0.00 68 1020.1
20190921023501 79 274 2.0 2.0 0.00 0.00 0.00 68 1020.0
20190921022959 79 27 1.0 2.0 0.00 0.00 0.00 68 1020.0
20190921022458 79 83 0.0 2.0 0.00 0.00 0.00 68 1020.0
20190921022001 79 98 0.0 1.0 0.00 0.00 0.00 68 1020.1
20190921021455 79 46 0.0 2.0 0.00 0.00 0.00 67 1019.9
20190921020955 79 108 3.0 3.0 0.00 0.00 0.00 67 1020.0
20190921020501 79 125 1.0 3.0 0.00 0.00 0.00 67 1019.9
20190921015958 79 105 1.0 1.0 0.00 0.00 0.00 66 1019.9
20190921015501 79 72 2.0 3.0 0.00 0.00 0.00 66 1019.8
20190921015001 79 135 2.0 6.0 0.00 0.00 0.00 66 1019.6
20190921014455 79 53 0.0 4.0 0.00 0.00 0.00 67 1019.6
20190921013958 80 58 2.0 3.0 0.00 0.00 0.00 67 1019.6
20190921013501 80 95 1.0 2.0 0.00 0.00 0.00 67 1019.5
20190921012959 80 48 3.0 4.0 0.00 0.00 0.00 67 1019.4
20190921012458 80 310 3.0 5.0 0.00 0.00 0.00 67 1019.4
20190921011958 80 113 2.0 2.0 0.00 0.00 0.00 67 1019.4
20190921011455 80 82 2.0 3.0 0.00 0.00 0.00 67 1019.4
20190921010955 80 89 0.0 2.0 0.00 0.00 0.00 67 1019.3
20190921010458 80 49 0.0 1.0 0.00 0.00 0.00 66 1019.2
20190921010001 80 342 0.0 3.0 0.00 0.00 0.00 66 1019.2
20190921005458 80 25 1.0 2.0 0.00 0.00 0.00 65 1019.2
20190921004955 81 69 2.0 5.0 0.00 0.00 0.00 65 1019.1
20190921004455 81 108 2.0 4.0 0.00 0.00 0.00 65 1019.0
20190921003955 81 59 1.0 3.0 0.00 0.00 0.00 65 1018.9
20190921003502 81 47 2.0 2.0 0.00 0.00 0.00 65 1018.9
20190921003001 81 35 0.0 4.0 0.00 0.00 0.00 65 1018.9
20190921002458 81 95 2.0 2.0 0.00 0.00 0.00 64 1018.9
20190921001955 81 86 3.0 3.0 0.00 0.00 0.00 64 1018.8
20190921001458 81 100 0.0 2.0 0.00 0.00 0.00 64 1018.7
20190921000958 81 255 1.0 3.0 0.00 0.00 0.00 63 1018.6
20190921000456 82 60 2.0 4.0 0.00 0.00 0.00 63 1018.6
20190920235958 82 29 0.0 1.0 0.00 0.00 0.00 63 1018.5
20190920235458 82 343 1.0 4.0 0.00 0.00 0.00 62 1018.4
20190920234955 82 69 2.0 4.0 0.00 0.00 0.00 62 1018.5
20190920234455 82 70 2.0 3.0 0.00 0.00 0.00 62 1018.3
20190920233958 82 72 1.0 4.0 0.00 0.00 0.00 63 1018.4
20190920233458 82 36 1.0 2.0 0.00 0.00 0.00 63 1018.3
20190920233001 82 73 1.0 3.0 0.00 0.00 0.00 63 1018.2
20190920232502 82 55 1.0 5.0 0.00 0.00 0.00 64 1018.3
20190920231958 82 89 0.0 1.0 0.00 0.00 0.00 65 1018.3
20190920231501 82 98 1.0 3.0 0.00 0.00 0.00 64 1018.2
20190920230958 82 299 0.0 3.0 0.00 0.00 0.00 64 1018.1
20190920230501 82 56 1.0 2.0 0.00 0.00 0.00 64 1018.1
20190920225958 82 123 1.0 5.0 0.00 0.00 0.00 64 1018.1
20190920225458 82 312 2.0 3.0 0.00 0.00 0.00 66 1018.0
20190920224958 82 34 2.0 3.0 0.00 0.00 0.00 67 1017.9
20190920224458 83 237 3.0 4.0 0.00 0.00 0.00 67 1017.9
20190920223958 83 101 0.0 1.0 0.00 0.00 0.00 67 1017.9
20190920223458 83 134 2.0 2.0 0.00 0.00 0.00 67 1017.9
20190920223001 83 307 1.0 4.0 0.00 0.00 0.00 68 1017.9
20190920222501 83 37 0.0 3.0 0.00 0.00 0.00 69 1017.8
20190920221955 82 49 0.0 3.0 0.00 0.00 0.00 70 1017.8
20190920221458 82 37 0.0 2.0 0.00 0.00 0.00 70 1017.8
20190920220955 82 58 4.0 4.0 0.00 0.00 0.00 71 1017.8
20190920220501 82 66 0.0 4.0 0.00 0.00 0.00 72 1017.8
20190920215959 81 330 0.0 2.0 0.00 0.00 0.00 73 1017.8
20190920215455 81 62 1.0 2.0 0.00 0.00 0.00 74 1017.8
20190920215001 81 27 0.0 1.0 0.00 0.00 0.00 76 1017.8
20190920214501 81 75 0.0 2.0 0.00 0.00 0.00 75 1017.7
20190920213959 82 358 0.0 2.0 0.00 0.00 0.00 74 1017.8
20190920213501 83 20 2.0 2.0 0.00 0.00 0.00 71 1017.7
20190920212955 84 354 4.0 5.0 0.00 0.00 0.00 67 1017.6
20190920212458 84 53 1.0 3.0 0.00 0.00 0.00 66 1017.6
20190920211958 84 51 3.0 4.0 0.00 0.00 0.00 67 1017.5
20190920211455 85 281 1.0 2.0 0.00 0.00 0.00 65 1017.5
20190920211001 85 28 4.0 5.0 0.00 0.00 0.00 61 1017.5
20190920210501 86 111 3.0 4.0 0.00 0.00 0.00 61 1017.5
20190920210001 86 359 4.0 4.0 0.00 0.00 0.00 61 1017.5
20190920205458 85 88 0.0 1.0 0.00 0.00 0.00 62 1017.5
20190920205001 85 20 2.0 7.0 0.00 0.00 0.00 61 1017.5
20190920204455 85 91 4.0 5.0 0.00 0.00 0.00 61 1017.5
20190920203958 85 285 1.0 3.0 0.00 0.00 0.00 61 1017.4
20190920203501 86 76 2.0 6.0 0.00 0.00 0.00 60 1017.4
20190920202955 86 68 2.0 4.0 0.00 0.00 0.00 60 1017.4
20190920202458 86 336 3.0 6.0 0.00 0.00 0.00 61 1017.5
20190920201955 86 84 3.0 6.0 0.00 0.00 0.00 62 1017.5
20190920201501 87 8 5.0 5.0 0.00 0.00 0.00 61 1017.5
20190920201001 87 326 2.0 4.0 0.00 0.00 0.00 61 1017.5
20190920200501 87 356 1.0 5.0 0.00 0.00 0.00 58 1017.5
20190920195958 88 59 5.0 5.0 0.00 0.00 0.00 56 1017.4
20190920195458 88 75 4.0 4.0 0.00 0.00 0.00 54 1017.4
20190920194958 88 62 4.0 6.0 0.00 0.00 0.00 54 1017.5
20190920194455 88 39 2.0 8.0 0.00 0.00 0.00 53 1017.5
20190920193955 88 43 5.0 5.0 0.00 0.00 0.00 55 1017.6
20190920193501 88 32 2.0 6.0 0.00 0.00 0.00 55 1017.5
20190920192955 88 8 2.0 5.0 0.00 0.00 0.00 55 1017.5
20190920192501 88 133 2.0 4.0 0.00 0.00 0.00 57 1017.7
20190920191958 87 49 3.0 5.0 0.00 0.00 0.00 56 1017.6
20190920191455 87 122 2.0 4.0 0.00 0.00 0.00 57 1017.7
20190920190958 87 83 2.0 3.0 0.00 0.00 0.00 57 1017.8
20190920190455 88 91 3.0 4.0 0.00 0.00 0.00 56 1017.8
20190920190001 88 103 3.0 4.0 0.00 0.00 0.00 57 1017.8
20190920185458 88 332 1.0 3.0 0.00 0.00 0.00 60 1018.0
20190920185001 88 101 3.0 4.0 0.00 0.00 0.00 58 1018.0
20190920184455 87 65 2.0 3.0 0.00 0.00 0.00 59 1018.1
20190920183958 88 95 4.0 6.0 0.00 0.00 0.00 61 1018.2
20190920183458 87 44 1.0 6.0 0.00 0.00 0.00 61 1018.2
20190920182958 86 330 3.0 4.0 0.00 0.00 0.00 63 1018.2
20190920182501 86 73 2.0 4.0 0.00 0.00 0.00 62 1018.3
20190920181955 87 35 1.0 5.0 0.00 0.00 0.00 61 1018.2
20190920181458 87 25 2.0 3.0 0.00 0.00 0.00 61 1018.3
20190920181001 87 116 2.0 4.0 0.00 0.00 0.00 62 1018.2
20190920180458 87 330 2.0 3.0 0.00 0.00 0.00 63 1018.3
20190920180001 86 54 3.0 5.0 0.00 0.00 0.00 61 1018.4
20190920175455 85 72 1.0 5.0 0.00 0.00 0.00 60 1018.4
20190920175001 85 124 3.0 5.0 0.00 0.00 0.00 61 1018.5
20190920174458 86 67 3.0 5.0 0.00 0.00 0.00 62 1018.4
20190920173958 86 115 2.0 3.0 0.00 0.00 0.00 62 1018.4
20190920173458 87 101 2.0 3.0 0.00 0.00 0.00 61 1018.4
20190920172958 87 41 0.0 2.0 0.00 0.00 0.00 62 1018.5
20190920172501 88 94 4.0 4.0 0.00 0.00 0.00 62 1018.6